Tracking 24122 objects as of 8-Dec-2021
HD Live streaming from Space Station
objects crossing your sky now

COSMOS 1158

Track COSMOS 1158 now!
10-day predictions
COSMOS 1158 is classified as:


NORAD ID: 11693
Int'l Code: 1980-012C
Perigee: 1,441.0 km
Apogee: 1,482.9 km
Inclination: 74.0 °
Period: 115.0 minutes
Semi major axis: 7832 km
RCS: 0.707 m2 (medium)
Launch date: February 11, 1980
Source: Commonwealth of Independent States (former USSR) (CIS)
Launch site: PLESETSK MISSILE AND SPACE COMPLEX (PKMTR)
aabbcc
Your satellite tracking list
Your tracking list is empty




NASA's NSSDC Master Catalog

Two Line Element Set (TLE):
1 11693U 80012C   21341.55530547 -.00000018  00000-0 -12110-4 0  9996
2 11693  74.0205 269.8458 0026758 123.5774  48.9986 12.52312943911826
Source of the keplerian elements: AFSPC